TimeMST,TemperatureF,Dew PointF,Humidity,Sea Level PressureIn,VisibilityMPH,Wind Direction,Wind SpeedMPH,Gust SpeedMPH,PrecipitationIn,Events,Conditions,WindDirDegrees,DateUTC
12:53 AM,9.0,6.1,88,30.44,10.0,Calm,Calm,-,N/A,,Clear,0,2012-12-22 07:53:00
1:53 AM,7.0,3.9,87,30.43,10.0,East,4.6,-,N/A,,Clear,80,2012-12-22 08:53:00
2:53 AM,6.1,3.0,87,30.43,10.0,NE,3.5,-,N/A,,Clear,40,2012-12-22 09:53:00
3:53 AM,9.0,7.0,92,30.40,10.0,NNE,3.5,-,N/A,,Clear,30,2012-12-22 10:53:00
4:53 AM,8.1,5.0,87,30.40,10.0,Calm,Calm,-,N/A,,Clear,0,2012-12-22 11:53:00
5:53 AM,6.1,3.0,87,30.44,10.0,ENE,5.8,-,N/A,,Clear,60,2012-12-22 12:53:00
6:53 AM,8.1,3.9,83,30.45,10.0,NE,3.5,-,N/A,,Clear,40,2012-12-22 13:53:00
7:53 AM,10.0,6.1,84,30.46,10.0,East,4.6,-,N/A,,Clear,80,2012-12-22 14:53:00
8:53 AM,12.9,8.1,81,30.49,10.0,Calm,Calm,-,N/A,,Clear,0,2012-12-22 15:53:00
9:53 AM,16.0,10.9,81,30.48,10.0,East,3.5,-,N/A,,Clear,80,2012-12-22 16:53:00
10:53 AM,24.1,12.0,60,30.44,10.0,Calm,Calm,-,N/A,,Clear,0,2012-12-22 17:53:00
11:53 AM,26.1,15.1,63,30.40,10.0,ENE,3.5,-,N/A,,Clear,60,2012-12-22 18:53:00
12:53 PM,32.0,17.1,54,30.33,10.0,ENE,4.6,-,N/A,,Clear,70,2012-12-22 19:53:00
1:53 PM,32.0,18.0,56,30.33,10.0,Calm,Calm,-,N/A,,Clear,0,2012-12-22 20:53:00
2:53 PM,30.0,18.0,61,30.34,10.0,ENE,3.5,-,N/A,,Clear,70,2012-12-22 21:53:00
3:53 PM,28.0,15.1,58,30.33,10.0,NE,4.6,-,N/A,,Clear,50,2012-12-22 22:53:00
4:53 PM,30.9,12.0,46,30.31,10.0,Calm,Calm,-,N/A,,Clear,0,2012-12-22 23:53:00
5:53 PM,25.0,12.9,60,30.35,10.0,Calm,Calm,-,N/A,,Clear,0,2012-12-23 00:53:00
6:53 PM,21.9,12.9,68,30.38,10.0,North,10.4,-,N/A,,Clear,10,2012-12-23 01:53:00
7:53 PM,21.0,12.0,68,30.38,10.0,NNE,5.8,-,N/A,,Clear,30,2012-12-23 02:53:00
8:53 PM,17.1,10.0,74,30.39,10.0,NNE,5.8,-,N/A,,Clear,30,2012-12-23 03:53:00
9:53 PM,16.0,8.1,71,30.38,10.0,NNE,3.5,-,N/A,,Clear,30,2012-12-23 04:53:00
10:53 PM,16.0,8.1,71,30.34,10.0,North,8.1,-,N/A,,Clear,10,2012-12-23 05:53:00
11:53 PM,9.0,3.9,80,30.35,10.0,North,3.5,-,N/A,,Clear,360,2012-12-23 06:53:00